Alexandria, Egypt

1:37 PM EET on February 24, 2017 (GMT +0200)
Alexandria International

Weather History for HEAX - November, 2011

Change the Weather History Date:

Monday, November 7, 2011

  Actual Average Record
Temperature  
Mean Temperature 68 °F -  
Max Temperature 76 °F 70 °F 82 °F (2016)
Min Temperature 61 °F 55 °F 48 °F (2006)
Cooling Degree Days 4    
Growing Degree Days 18 (Base 50)    
Moisture  
Dew Point 56 °F    
Average Humidity 60    
Maximum Humidity 77    
Minimum Humidity 40    
Precipitation  
Precipitation 0.00 in 0.05 in - ()
Sea Level Pressure  
Sea Level Pressure 30.18 in    
Wind  
Wind Speed 5 mph ()    
Max Wind Speed 13 mph    
Max Gust Speed -    
Visibility 6.2 miles    
Events      
Averages and records for this station are not official NWS values.
T = Trace of Precipitation, MM = Missing Value Source: Averaged Metar Reports

Daily Weather History Graph

Daily Weather History Graph

Search for Another Location

Airport or City:

Trip Planner

Search our weather history database for the weather conditions in past years. The results will help you decide how hot, cold, wet, or windy it might be!

Date:

Astronomy

Nov. 07, 2011 Rise Set
Actual Time 6:20 AM EET 5:07 PM EET
Civil Twilight 5:54 AM EET 5:32 PM EET
Nautical Twilight 5:25 AM EET 6:01 PM EET
Astronomical Twilight 4:57 AM EET 6:29 PM EET
Moon 3:01 PM EET (11/7) 3:13 AM EET (11/7)
Length of Visible Light 11h 37m
Length of Day
10h 47m
Waxing Gibbous, 90% of the Moon is Illuminated
Nov 7
Waxing Gibbous
Nov 10
Full
Nov 18
Last Quarter
Nov 25
New
Dec 2
First Quarter

Hourly Weather History & Observations

Time (EET) Temp. Dew Point Humidity Pressure Visibility Wind Dir Wind Speed Gust Speed Precip Events Conditions
12:00 AM 64.4 °F 57.2 °F 77% 30.18 in 6.2 mi North 3.5 mph - N/A   Scattered Clouds
1:00 AM 66.2 °F 53.6 °F 64% 30.12 in 6.2 mi NNW 6.9 mph - N/A   Scattered Clouds
2:00 AM 66.2 °F 53.6 °F 64% 30.15 in 6.2 mi North 4.6 mph - N/A   Scattered Clouds
3:00 AM 66.2 °F 53.6 °F 64% 30.18 in 6.2 mi NNW 4.6 mph - N/A   Scattered Clouds
4:00 AM 64.4 °F 53.6 °F 68% 30.15 in 6.2 mi North 4.6 mph - N/A   Scattered Clouds
5:00 AM 64.4 °F 53.6 °F 68% 30.18 in 6.2 mi Calm Calm - N/A   Scattered Clouds
6:00 AM 62.6 °F 53.6 °F 72% 30.18 in 6.2 mi Calm Calm - N/A   Scattered Clouds
7:00 AM 62.6 °F 53.6 °F 72% 30.21 in 6.2 mi Calm Calm - N/A   Scattered Clouds
8:00 AM 68 °F 56 °F 56% 30.22 in 6 mi Calm Calm - -   Mostly Cloudy
8:00 AM 68.0 °F 55.4 °F 64% 30.21 in 6.2 mi Calm Calm - N/A   Scattered Clouds
9:00 AM 73.4 °F 57.2 °F 57% 30.21 in 6.2 mi ENE 5.8 mph - N/A   Scattered Clouds
10:00 AM 78.8 °F 57.2 °F 47% 30.21 in 6.2 mi ENE 6.9 mph - N/A   Scattered Clouds
11:00 AM 77.0 °F 55.4 °F 47% 30.21 in 6.2 mi NNE 8.1 mph - N/A   Scattered Clouds
12:00 PM 75.2 °F 55.4 °F 50% 30.18 in 6.2 mi NNE 9.2 mph - N/A   Scattered Clouds
1:00 PM 77.0 °F 55.4 °F 47% 30.18 in 6.2 mi North 9.2 mph - N/A   Scattered Clouds
2:00 PM 76 °F 56 °F 40% 30.18 in 6 mi North 11.5 mph - -   Mostly Cloudy
2:00 PM 77.0 °F 55.4 °F 47% 30.18 in 6.2 mi North 11.5 mph - N/A   Scattered Clouds
3:00 PM 75.2 °F 57.2 °F 53% 30.18 in 6.2 mi North 6.9 mph - N/A   Scattered Clouds
4:00 PM 75.2 °F 57.2 °F 53% 30.18 in 6.2 mi North 6.9 mph - N/A   Scattered Clouds
5:00 PM 71.6 °F 55.4 °F 57% 30.15 in 6.2 mi North 11.5 mph - N/A   Scattered Clouds
6:00 PM 68.0 °F 55.4 °F 64% 30.18 in 6.2 mi North 10.4 mph - N/A   Scattered Clouds
7:00 PM 68.0 °F 57.2 °F 68% 30.18 in 6.2 mi North 12.7 mph - N/A   Scattered Clouds
8:00 PM 68 °F 56 °F 57% 30.20 in 6 mi North 6.9 mph - -   Partly Cloudy
8:00 PM 68.0 °F 57.2 °F 68% 30.18 in 6.2 mi North 6.9 mph - N/A   Scattered Clouds
9:00 PM 68.0 °F 57.2 °F 68% 30.18 in 6.2 mi North 9.2 mph - N/A   Scattered Clouds
10:00 PM 66.2 °F 55.4 °F 68% 30.18 in 6.2 mi North 8.1 mph - N/A   Scattered Clouds
11:00 PM 66.2 °F 55.4 °F 68% 30.21 in 6.2 mi North 5.8 mph - N/A   Scattered Clouds